GOES 16

Last updated on Tue Sep 22 2026 00:02:53 GMT+0000 (Coordinated Universal Time)

1 41866U 16071A 26264.51175066 -.00000095 00000+0 00000+0 0 9994 2 41866 0.5712 84.2828 0001741 130.3159 225.3519 1.00271820 36062
UTC large
Height (km)
Speed (km/s)
/
Latitude / Longitude
Inclination (degrees)
Orbital Period (minutes)
Azimuth
Elevation
Range (km)
Doppler Factor

Next 0 passes for location: London (51.5072 / 0.1276)

No passes found over London.
GOES 16